Location: The Saddle
(36.8333°N, 80.3417°W)
Time: 15:55:17
(UTC-04:00)

Vanguard 2 - Visible Passes

Search period start: 17 July 2024 00:00
Search period end: 27 July 2024 00:00
Orbit: 552 x 2913 km, 32.9° (Epoch: 17 July)

Date Brightness Start Highest point End Pass type
(mag) Time Alt. Az. Time Alt. Az. Time Alt. Az.
17 Jul 8.4 03:15:23 56° S 03:15:23 56° S 03:25:06 10° ESE visible
17 Jul 9.7 05:17:23 10° W 05:24:36 33° SSW 05:35:34 10° SE visible
18 Jul 8.5 03:29:40 48° S 03:29:40 48° S 03:39:08 10° ESE visible
18 Jul 10.0 05:32:02 10° WSW 05:38:51 26° SSW 05:48:37 10° SSE visible
19 Jul 8.8 03:44:07 40° S 03:44:07 40° S 03:52:58 10° SE visible
19 Jul 10.2 05:47:04 10° WSW 05:53:06 20° SSW 06:01:11 10° SSE visible
19 Jul 8.5 21:32:06 10° S 21:34:27 15° SSE 21:35:13 14° SE visible
20 Jul 9.2 03:58:43 32° S 03:58:43 32° S 04:06:34 10° SE visible
20 Jul 8.1 21:45:20 10° SSW 21:48:27 21° SSE 21:49:11 20° SE visible
21 Jul 9.6 04:13:24 25° S 04:13:24 25° S 04:19:52 10° SSE visible
21 Jul 7.7 21:58:57 10° SW 22:02:30 28° SSE 22:03:02 27° SSE visible
22 Jul 10.0 04:28:09 18° S 04:28:09 18° S 04:32:42 10° SSE visible
22 Jul 7.4 22:12:47 10° SW 22:16:33 36° SSE 22:16:45 36° SSE visible
23 Jul 10.3 04:42:53 12° S 04:42:53 12° S 04:44:42 10° S visible
23 Jul 7.2 22:26:45 10° WSW 22:30:23 42° S 22:30:23 42° S visible
24 Jul 7.5 22:40:49 10° WSW 22:43:55 41° SW 22:43:55 41° SW visible
25 Jul 8.0 22:54:55 10° WSW 22:57:24 32° SW 22:57:24 32° SW visible
26 Jul 7.7 21:00:40 10° WSW 21:05:24 40° S 21:09:10 10° E visible
26 Jul 8.6 23:09:03 10° W 23:10:49 23° WSW 23:10:49 23° WSW visible
